Regional Weather Roundup
Issued by NWS

Home | Current Version | Previous Version | Graphics & Text | Print | Product List | Glossary On
Versions: 1 2 3 4 5 6 7 8 9 10 11 12 13 14 15 16 17 18 19 20 21 22 23 24 25 26 27 28 29 30 31 32 33 34 35 36 37 38 39 40 41 42 43 44 45 46 47 48 49 50
000
ASUS43 KMPX 040401
RWRMN
WEATHER ROUNDUP FOR MINNESOTA
NATIONAL WEATHER SERVICE TWIN CITIES/CHANHASSEN MN
1000 PM CST SAT DEC 03 2016


NOTE: "FAIR" INDICATES FEW OR NO CLOUDS BELOW 12,000 FEET WITH NO
SIGNIFICANT WEATHER AND/OR OBSTRUCTIONS TO VISIBILITY. N/A MEANS
CURRENT SKY AND/OR WEATHER CONDITIONS ARE NOT AVAILABLE.

MNZ060>063-068>070-040500-
   Twin Cities Metro

CITY           SKY/WX    TMP DP  RH WIND       PRES   REMARKS
TWIN CITIES    CLOUDY    32  24  72 SE9       30.14F WCI  24
ST PAUL        CLOUDY    32  26  78 SE12      30.16F WCI  23
CRYSTAL        CLOUDY    32  23  69 SE12      30.12F WCI  23
BLAINE         CLOUDY    34  27  75 SE7       30.13S WCI  28
LAKEVILLE      CLOUDY    30  27  86 SE6       30.14F WCI  24
EDEN PRAIRIE   FLURRIES  33  26  75 SE12      30.11F WCI  24
SOUTH ST PAUL  CLOUDY    32  24  73 SE6       30.15S WCI  26
LAKE ELMO      CLOUDY    32  27  80 SE5       30.16S WCI  27
$$
MNZ001>005-007-008-013>017-022>024-027-028-040500-
   Northwest Minnesota

CITY           SKY/WX    TMP DP  RH WIND       PRES   REMARKS
BEMIDJI        CLOUDY    26  23  89 SE12      30.00F WCI  15
HALLOCK        LGT SNOW  28  27  93 SE13      29.92F WCI  18
ROSEAU         CLOUDY    27  21  80 SE10      29.98F WCI  17
WARROAD        PTCLDY    23  19  86 SE8       29.99F WCI  14
THIEF RVR FALL FLURRIES  28  24  85 SE12      29.96F WCI  18
CROOKSTON      CLOUDY    30  28  93 S15G21    29.95F WCI  19
FOSSTON        CLOUDY    27  23  86 SE12      29.96F WCI  16
DETROIT LAKES  CLOUDY    32  30  93 SE13      29.98S WCI  22
MOORHEAD       CLOUDY    34  30  86 SE20      29.96F WCI  22
PARK RAPIDS    CLOUDY    28  23  81 SE14      30.01S WCI  17
$$
MNZ006-009>011-018-025>026-040500-
   North Central Minnesota

CITY           SKY/WX    TMP DP  RH WIND       PRES   REMARKS
BAUDETTE       CLEAR     22  18  85 SE9       30.02F WCI  12
FLAG ISLAND    CLOUDY    27  21  80 S22       30.01F WCI  12
INTL FALLS     CLEAR     20  16  84 SE7       30.06F WCI  11
WASKISH        PTCLDY    23  21  93 SE3       30.02F
BIG FORK       PTCLDY    27  21  80 SE7       30.06F WCI  19
LONGVILLE      FLURRIES  27  25  93 SE7       30.05F WCI  19
GRAND RAPIDS   CLOUDY    27  21  78 SE7       30.08F WCI  19
CRANE LAKE     CLOUDY    25  19  80 S3        30.12F
COOK           MOCLDY    27  19  74 SE6       30.09F WCI  20
$$
MNZ012-019>021-037-040500-
   Northeast Minnesota

CITY           SKY/WX    TMP DP  RH WIND       PRES   REMARKS
DULUTH         CLOUDY    27  20  75 S6        30.11F WCI  20
ELY            CLOUDY    27  21  80 SE3       30.11F
HIBBING        CLOUDY    26  19  74 SE7       30.09F WCI  18
EVELETH        CLOUDY    28  20  73 S7        30.11F WCI  20
DULUTH HARBOR  CLOUDY    30  23  74 S5        30.17F WCI  25
TWO HARBORS    MOCLDY    32  23  69 S5        30.12F WCI  27
SILVER BAY     CLOUDY    30  23  74 S6        30.13F WCI  24
GRAND MARAIS     N/A     36  28  73 SW15      30.17F
G MARAIS ARPRT CLOUDY    27  21  80 S8        30.12F WCI  18
$$
MNZ029>031-032-039>041-046>048-054>057-064-040500-
   West Central Minnesota

CITY           SKY/WX    TMP DP  RH WIND       PRES   REMARKS
FERGUS FALLS   FLURRIES  34  34 100 S16       30.02F WCI  23
WHEATON        CLOUDY   N/A N/A N/A SE14G20   29.99F HAZE
MORRIS         MIX PCPN  34  32  93 S15       30.00S WCI  24
ALEXANDRIA     LGT SNOW  31  30  96 SE13      30.02F FOG     WCI  21
ELBOW LAKE     CLOUDY    32  32  99 S20       29.99F WCI  20
WADENA         MIX PCPN  28  27  93 SE10      30.01F WCI  19
GLENWOOD       LGT SNOW  30  30 100 SE14      30.03F WCI  20
APPLETON       CLOUDY    36  32  87 S9        30.01F FOG
BENSON         LGT SNOW  34  30  86 S13G18    30.02F WCI  25
ORTONVILLE     CLOUDY    34  30  86 S5        29.99S FOG     WCI  30
MADISON        CLOUDY    37  36  93 S15       30.01F FOG
WILLMAR        LGT SNOW  34  34 100 SE10      30.06F WCI  26
$$
MNZ033>034-036-042>043-049>051-058-059-040500-
   Central Minnesota

CITY           SKY/WX    TMP DP  RH WIND       PRES   REMARKS
ST CLOUD       CLOUDY    30  25  81 SE10      30.09F WCI  21
PAYNESVILLE    LGT SNOW  32  32 100 SE12      30.06F WCI  23
AITKIN         CLOUDY    30  21  69 SE8       30.07F WCI  23
PINE RIVER     CLOUDY    27  25  93 SE8       30.08F WCI  18
BRAINERD       CLOUDY    28  23  81 SE7       30.07F WCI  21
STAPLES        CLOUDY    27  25  93 SE9       30.04F WCI  17
LONG PRAIRIE   LGT SNOW  30  28  93 E10       30.05S WCI  21
LITTLE FALLS   CLOUDY    30  23  74 SE9       30.07F WCI  22
LITCHFIELD     LGT SNOW  34  30  86 SE7       30.08F WCI  28
BUFFALO        FLURRIES  32  27  80 SE8       30.12F WCI  25
MAPLE LAKE     LGT SNOW  32  29  90 SE8       30.10F WCI  25
$$
MNZ037-044-045-052-053-040500-
   East Central Minnesota

CITY           SKY/WX    TMP DP  RH WIND       PRES   REMARKS
PRINCETON      CLOUDY    30  25  80 SE6       30.11F WCI  24
MORA           CLOUDY    30  23  74 SE5       30.14F WCI  25
CAMBRIDGE      CLOUDY    32  21  64 SE6       30.11F WCI  26
RUSH CITY      CLOUDY    30  23  74 SE6       30.14S WCI  24
MOOSE LAKE     CLOUDY    30  21  69 S5        30.10F WCI  25
HINCKLEY       CLOUDY    30  23  74 SE5       30.13F WCI  25
CLOQUET        CLOUDY    28  19  69 SE3       30.11F
MCGREGOR       CLOUDY    30  23  74 SE7       30.09F WCI  23
$$
MNZ071>073-080-081-089-090-097-098-040500-
   Southwest Minnesota

CITY           SKY/WX    TMP DP  RH WIND       PRES   REMARKS
MONTEVIDEO     CLOUDY    34  34 100 S12       30.04F FOG     WCI  25
GRANITE FALLS  CLOUDY    35  33  92 SE17      30.06S FOG     WCI  25
CANBY          CLOUDY    36  33  89 S8        30.02S FOG
MARSHALL       CLOUDY    35  31  85 S15       30.03F WCI  25
REDWOOD FALLS  LGT SNOW  34  31  88 S12       30.06F FOG     WCI  25
OLIVIA         LGT SNOW  34  32  93 SE12      30.05F WCI  25
PIPESTONE      CLOUDY    34  32  93 S17       30.00F FOG     WCI  23
WINDOM         FLURRIES  34  34 100 CALM      30.06F
WORTHINGTON    MIX PCPN  32  31  96 S16G23    30.05F WCI  21
JACKSON        LGT SNOW  32  32 100 S13       30.08F WCI  22
TRACY          CLOUDY    35  32  91 S12G20    30.04S WCI  26
SLAYTON        CLOUDY    32  31  96 S16       30.04F FOG     WCI  21
$$
MNZ065>067-074>077-082>085-091>093-040500-
   South Central Minnesota

CITY           SKY/WX    TMP DP  RH WIND       PRES   REMARKS
MANKATO        FLURRIES  33  32  96 S7        30.11F WCI  27
NEW ULM        LGT SNOW  34  34 100 S10       30.09F WCI  26
ST JAMES       CLOUDY    34  34 100 SE8       30.10F WCI  27
FAIRMONT       CLOUDY    33  32  96 S10       30.10F WCI  25
GLENCOE        LGT SNOW  33  33  99 SE8       30.10F WCI  26
FARIBAULT      CLOUDY    34  30  86 CALM      30.13F
OWATONNA       LGT SNOW  34  30  86 SE8       30.13F WCI  27
WASECA         LGT SNOW  32  32 100 SE6       30.13F WCI  26
ALBERT LEA     LGT SNOW  36  36 100 S9        30.12F
$$
MNZ078>079-086>088-094>096-040500-
   Southeast Minnesota

CITY           SKY/WX    TMP DP  RH WIND       PRES   REMARKS
ROCHESTER      CLOUDY    30  26  85 SE13      30.14F WCI  20
RED WING       CLOUDY    34  23  64 SE8       30.16F WCI  27
STANTON        CLOUDY    33  26  78 SE7       30.13F WCI  26
DODGE CENTER   LGT SNOW  30  28  93 SE9       30.13F WCI  22
WINONA         CLOUDY    32  27  80 CALM      30.20S
AUSTIN         LGT SNOW  32  30  93 SE7       30.13F WCI  26
PRESTON        CLOUDY    29  25  83 SE6       30.16F WCI  23
$$
ABBREVIATIONS USED IN REMARKS
   TC - TEMPERATURES IN CELSIUS
  WCI - WIND CHILL INDEX
   HX - HEAT INDEX
  VSB - VISIBILITY
$$




USA.gov is the U.S. government's official web portal to all federal, state and local government web resources and services.